Location: �bnet
(46.9957°N, 8.4908°E)
Time: 10:08:58
(UTC+00:00)

CZ-4C R/B - Pass Details

Date: 11 May 2021
Orbit: 609 x 1392 km, 63.4° (Epoch: 13 June)

Event Time Altitude Azimuth Distance (km) Brightness Sun altitude
Rises 20:28:05 0° 319° (NW) 3,809 7.6 -14.0°
Reaches altitude 10° 20:30:32 10° 319° (NW) 2,957 6.5 -14.3°
Maximum altitude 20:37:46 83° 234° (SW) 1,258 3.0 -15.1°
Enters shadow 20:43:47 21° 148° (SSE) 2,611 4.1 -15.8°
